Tracking 19827 objects as of 22-Aug-2019
HD Live streaming from Space Station
objects crossing your sky now

ARIANE 2 DEB

Track ARIANE 2 DEB now!


NORAD ID: 27595
Int'l Code: 1988-040E
Perigee: 523.3 km
Apogee: 35,396.4 km
Inclination: 7.4 °
Period: 629.5 minutes
Semi major axis: 24330 km
RCS: 8.9719 m2 (large)
Launch date: May 17, 1988
Source: France (FR)
Launch site: FRENCH GUIANA (FRGUI)

Note: This is SATELLITE DEBRIS
aabbcc
Your satellite tracking list
Your tracking list is empty




NASA's NSSDC Master Catalog

Two Line Element Set (TLE):
1 27595U 88040E   19233.22815386 -.00000056 +00000-0 -10282-3 0  9990
2 27595 007.3892 255.0455 7166451 322.4119 004.5238 02.28753682142515
Source of the keplerian elements: AFSPC